NKS1276 KATL-KFLL

Flight info

Callsign NKS1276
Flight time N/A
Altitude 37000
Route SMLTZ3 WALET ZPLEN TEEKY3
Aircraft A20N/M-SDE2E3FGHIRWXY/LB1

Departure

Time 2026-05-03 21:08
Airport Hartsfield Jackson Atlanta International Airport (KATL)

Arrival

Time N/A
Airport Fort Lauderdale Hollywood International Airport (KFLL)
Time Latitude Longitude Altitude Speed Heading
2026-05-03 20:38 33.63745 -84.42972 1007 ft 0 kts 90°
2026-05-03 20:48 33.63745 -84.42980 1007 ft 1 kts 95°
2026-05-03 20:48 33.63746 -84.42989 1007 ft 1 kts 99°
2026-05-03 20:48 33.63747 -84.42999 1007 ft 1 kts 99°
2026-05-03 20:49 33.63749 -84.43009 1007 ft 1 kts 99°
2026-05-03 20:49 33.63750 -84.43018 1007 ft 1 kts 99°
2026-05-03 20:49 33.63751 -84.43028 1007 ft 1 kts 99°
2026-05-03 20:49 33.63753 -84.43040 1007 ft 1 kts 103°
2026-05-03 20:50 33.63754 -84.43047 1007 ft 1 kts 123°
2026-05-03 20:50 33.63758 -84.43052 1007 ft 1 kts 144°
2026-05-03 20:50 33.63762 -84.43056 1007 ft 1 kts 158°
2026-05-03 20:50 33.63767 -84.43058 1007 ft 1 kts 165°
2026-05-03 20:51 33.63772 -84.43060 1007 ft 1 kts 172°
2026-05-03 20:51 33.63778 -84.43061 1007 ft 1 kts 178°
2026-05-03 20:51 33.63779 -84.43061 1007 ft 0 kts 180°
2026-05-03 20:55 33.63767 -84.43061 1007 ft 0 kts 180°
2026-05-03 20:55 33.63764 -84.43061 1007 ft 2 kts 180°
2026-05-03 20:56 33.63714 -84.43056 1007 ft 10 kts 163°
2026-05-03 20:56 33.63667 -84.42984 1006 ft 13 kts 100°
2026-05-03 20:56 33.63658 -84.42864 1005 ft 15 kts 91°
2026-05-03 20:56 33.63657 -84.42723 1008 ft 18 kts 90°
2026-05-03 20:57 33.63650 -84.42574 1008 ft 19 kts 86°
2026-05-03 20:57 33.63655 -84.42404 1005 ft 22 kts 88°
2026-05-03 20:57 33.63657 -84.42218 1005 ft 23 kts 92°
2026-05-03 20:57 33.63654 -84.42018 1000 ft 26 kts 90°
2026-05-03 20:58 33.63654 -84.41786 994 ft 29 kts 89°
2026-05-03 20:58 33.63656 -84.41537 991 ft 31 kts 91°
2026-05-03 20:58 33.63653 -84.41276 987 ft 30 kts 90°
2026-05-03 20:58 33.63654 -84.41157 989 ft 13 kts 89°
2026-05-03 20:59 33.63655 -84.41043 990 ft 12 kts 89°
2026-05-03 20:59 33.63655 -84.41014 992 ft 4 kts 89°
2026-05-03 20:59 33.63643 -84.40937 996 ft 12 kts 120°
2026-05-03 20:59 33.63625 -84.40920 989 ft 7 kts 146°
2026-05-03 21:00 33.63590 -84.40909 991 ft 0 kts 172°
2026-05-03 21:00 33.63588 -84.40909 989 ft 1 kts 178°
2026-05-03 21:00 33.63581 -84.40909 989 ft 0 kts 178°
2026-05-03 21:02 33.63580 -84.40909 987 ft 0 kts 178°
2026-05-03 21:03 33.63579 -84.40909 987 ft 1 kts 178°
2026-05-03 21:03 33.63570 -84.40908 992 ft 9 kts 178°
2026-05-03 21:03 33.63496 -84.40927 988 ft 12 kts 217°
2026-05-03 21:04 33.63471 -84.40994 990 ft 0 kts 267°
2026-05-03 21:05 33.63471 -84.41001 988 ft 2 kts 267°
2026-05-03 21:05 33.63471 -84.41002 988 ft 0 kts 266°
2026-05-03 21:07 33.63470 -84.41011 988 ft 10 kts 266°
2026-05-03 21:07 33.63470 -84.41432 992 ft 89 kts 268°
2026-05-03 21:07 33.63461 -84.42437 1008 ft 149 kts 269°
2026-05-03 21:08 33.63462 -84.43872 1292 ft 177 kts 271°
2026-05-03 21:08 33.63523 -84.45309 2256 ft 178 kts 276°
2026-05-03 21:08 33.63667 -84.46861 2943 ft 195 kts 279°
2026-05-03 21:08 33.63883 -84.48541 3647 ft 212 kts 280°
2026-05-03 21:09 33.63989 -84.50391 4399 ft 231 kts 267°
2026-05-03 21:09 33.63810 -84.52296 5459 ft 229 kts 264°
2026-05-03 21:09 33.63620 -84.54215 6322 ft 234 kts 266°
2026-05-03 21:09 33.63501 -84.56187 7058 ft 238 kts 269°
2026-05-03 21:10 33.63451 -84.58181 7879 ft 240 kts 270°
2026-05-03 21:10 33.63438 -84.60198 8603 ft 248 kts 271°
2026-05-03 21:10 33.63440 -84.62367 8977 ft 269 kts 271°
2026-05-03 21:10 33.63175 -84.64595 9639 ft 279 kts 250°
2026-05-03 21:11 33.62109 -84.66555 10379 ft 287 kts 225°
2026-05-03 21:11 33.60402 -84.67911 11147 ft 293 kts 212°
2026-05-03 21:11 33.58597 -84.69013 11873 ft 299 kts 202°
2026-05-03 21:11 33.56541 -84.69466 12611 ft 307 kts 182°
2026-05-03 21:12 33.54406 -84.69154 13344 ft 312 kts 173°
2026-05-03 21:12 33.52252 -84.68717 14065 ft 315 kts 173°
2026-05-03 21:12 33.50075 -84.68294 14735 ft 317 kts 174°
2026-05-03 21:12 33.47879 -84.67877 15390 ft 320 kts 174°
2026-05-03 21:13 33.45679 -84.67464 16040 ft 322 kts 174°
2026-05-03 21:13 33.43456 -84.66973 16654 ft 328 kts 166°
2026-05-03 21:13 33.41359 -84.65825 17261 ft 336 kts 148°
2026-05-03 21:13 33.39585 -84.63974 17845 ft 344 kts 137°
2026-05-03 21:14 33.37859 -84.61895 18031 ft 361 kts 137°
2026-05-03 21:14 33.36045 -84.59732 18209 ft 377 kts 137°
2026-05-03 21:14 33.34141 -84.57475 18386 ft 393 kts 137°
2026-05-03 21:14 33.32176 -84.55153 18799 ft 399 kts 137°
2026-05-03 21:15 33.30192 -84.52813 19360 ft 401 kts 137°
2026-05-03 21:15 33.28203 -84.50470 19872 ft 404 kts 138°
2026-05-03 21:15 33.26184 -84.48094 20394 ft 407 kts 138°
2026-05-03 21:15 33.24185 -84.45744 20911 ft 410 kts 138°
2026-05-03 21:16 33.22114 -84.43309 21430 ft 413 kts 138°
2026-05-03 21:16 33.20056 -84.40892 21960 ft 416 kts 138°
2026-05-03 21:16 33.18014 -84.38495 22465 ft 419 kts 138°
2026-05-03 21:16 33.15919 -84.36037 22952 ft 423 kts 138°
2026-05-03 21:17 33.13813 -84.33567 23463 ft 425 kts 139°
2026-05-03 21:17 33.12413 -84.31926 23775 ft 428 kts 139°
2026-05-03 21:17 33.09560 -84.28586 24300 ft 432 kts 139°
2026-05-03 21:17 33.07405 -84.26064 24684 ft 435 kts 139°
2026-05-03 21:18 33.05262 -84.23557 25052 ft 438 kts 139°
2026-05-03 21:18 33.03053 -84.20977 25432 ft 441 kts 140°
2026-05-03 21:18 33.00766 -84.18634 25790 ft 438 kts 149°
2026-05-03 21:18 32.98141 -84.16722 26162 ft 434 kts 159°
2026-05-03 21:19 32.95401 -84.15374 26542 ft 430 kts 167°
2026-05-03 21:19 32.92553 -84.14229 26888 ft 433 kts 167°
2026-05-03 21:19 32.89699 -84.13062 27252 ft 435 kts 167°
2026-05-03 21:19 32.86822 -84.11877 27610 ft 438 kts 167°
2026-05-03 21:20 32.83948 -84.10692 27950 ft 440 kts 167°
2026-05-03 21:20 32.81042 -84.09495 28289 ft 442 kts 168°
2026-05-03 21:20 32.78129 -84.08297 28612 ft 444 kts 168°
2026-05-03 21:20 32.75208 -84.07098 28934 ft 445 kts 168°
2026-05-03 21:21 32.72265 -84.05890 29223 ft 448 kts 168°
2026-05-03 21:21 32.69319 -84.04682 29515 ft 449 kts 168°
2026-05-03 21:21 32.66341 -84.03461 29839 ft 451 kts 168°
2026-05-03 21:21 32.63417 -84.02264 30112 ft 453 kts 169°
2026-05-03 21:22 32.60427 -84.01040 30374 ft 455 kts 169°
2026-05-03 21:22 32.57429 -83.99814 30660 ft 456 kts 169°
2026-05-03 21:22 32.54436 -83.98591 30939 ft 457 kts 169°
2026-05-03 21:22 32.51416 -83.97357 31235 ft 458 kts 169°
2026-05-03 21:23 32.48406 -83.96126 31578 ft 456 kts 169°
2026-05-03 21:23 32.45418 -83.94905 31954 ft 454 kts 170°
2026-05-03 21:23 32.42442 -83.93691 32331 ft 452 kts 170°
2026-05-03 21:23 32.39467 -83.92478 32698 ft 450 kts 170°
2026-05-03 21:24 32.36503 -83.91271 33039 ft 448 kts 171°
2026-05-03 21:24 32.33547 -83.90125 33395 ft 444 kts 173°
2026-05-03 21:24 32.30601 -83.89078 33733 ft 441 kts 173°
2026-05-03 21:24 32.28652 -83.88400 33957 ft 440 kts 173°
2026-05-03 21:25 32.24726 -83.87026 34351 ft 438 kts 173°
2026-05-03 21:25 32.22794 -83.86344 34491 ft 438 kts 173°
2026-05-03 21:25 32.19885 -83.85311 34689 ft 438 kts 173°
2026-05-03 21:25 32.16968 -83.84270 34894 ft 437 kts 174°
2026-05-03 21:26 32.14051 -83.83227 35100 ft 437 kts 174°
2026-05-03 21:26 32.11135 -83.82184 35315 ft 436 kts 174°
2026-05-03 21:26 32.08239 -83.81149 35503 ft 436 kts 174°
2026-05-03 21:26 32.05336 -83.80112 35693 ft 435 kts 174°
2026-05-03 21:27 32.02440 -83.79078 35872 ft 435 kts 174°
2026-05-03 21:27 31.99550 -83.78048 36071 ft 434 kts 174°
2026-05-03 21:27 31.96690 -83.77029 36229 ft 434 kts 174°
2026-05-03 21:27 31.93799 -83.76000 36394 ft 433 kts 174°
2026-05-03 21:28 31.90908 -83.74971 36565 ft 433 kts 174°
2026-05-03 21:28 31.88027 -83.73946 36725 ft 433 kts 174°
2026-05-03 21:28 31.85136 -83.72919 36873 ft 432 kts 175°
2026-05-03 21:28 31.82259 -83.71896 37021 ft 432 kts 175°
2026-05-03 21:29 31.79384 -83.70876 37126 ft 432 kts 175°
2026-05-03 21:29 31.76509 -83.69857 37129 ft 431 kts 175°
2026-05-03 21:29 31.70798 -83.67833 37130 ft 430 kts 175°
2026-05-03 21:30 31.65069 -83.65743 37131 ft 432 kts 174°
2026-05-03 21:30 31.59353 -83.63511 37136 ft 432 kts 174°
2026-05-03 21:31 31.53650 -83.61305 37132 ft 432 kts 174°
2026-05-03 21:31 31.47936 -83.59116 37144 ft 431 kts 174°
2026-05-03 21:32 31.42231 -83.56934 37124 ft 431 kts 174°
2026-05-03 21:32 31.36533 -83.54758 37135 ft 431 kts 174°
2026-05-03 21:33 31.30822 -83.52579 37137 ft 431 kts 174°
2026-05-03 21:33 31.25170 -83.50425 37135 ft 430 kts 174°
2026-05-03 21:34 31.19462 -83.48253 37129 ft 430 kts 174°
2026-05-03 21:34 31.13769 -83.46089 37120 ft 430 kts 174°
2026-05-03 21:35 31.08087 -83.43932 37117 ft 429 kts 174°
2026-05-03 21:35 31.02405 -83.41778 37111 ft 429 kts 175°
2026-05-03 21:36 30.96715 -83.39623 37111 ft 429 kts 175°
2026-05-03 21:36 30.91075 -83.37490 37122 ft 429 kts 175°
2026-05-03 21:37 30.85400 -83.35346 37118 ft 428 kts 175°
2026-05-03 21:37 30.79734 -83.33209 37113 ft 428 kts 175°
2026-05-03 21:38 30.74078 -83.31078 37110 ft 428 kts 175°
2026-05-03 21:38 30.68458 -83.28580 37112 ft 440 kts 168°
2026-05-03 21:39 30.62906 -83.25555 37117 ft 440 kts 168°
2026-05-03 21:39 30.57369 -83.22566 37120 ft 439 kts 168°
2026-05-03 21:40 30.51808 -83.19577 37123 ft 440 kts 168°
2026-05-03 21:40 30.46258 -83.16597 37129 ft 440 kts 168°
2026-05-03 21:41 30.40707 -83.13620 37128 ft 440 kts 168°
2026-05-03 21:41 30.35188 -83.10664 37139 ft 440 kts 168°
2026-05-03 21:42 30.29637 -83.07694 37114 ft 440 kts 168°
2026-05-03 21:42 30.24076 -83.04723 37129 ft 440 kts 168°
2026-05-03 21:43 30.18517 -83.01757 37120 ft 440 kts 169°
2026-05-03 21:43 30.12952 -82.98791 37123 ft 440 kts 169°
2026-05-03 21:44 30.07407 -82.95839 37118 ft 440 kts 169°
2026-05-03 21:44 30.01834 -82.92876 37113 ft 440 kts 169°
2026-05-03 21:45 29.96313 -82.89944 37111 ft 440 kts 169°
2026-05-03 21:45 29.90722 -82.86979 37106 ft 440 kts 169°
2026-05-03 21:46 29.85202 -82.84055 37104 ft 439 kts 169°
2026-05-03 21:46 29.79641 -82.81113 37095 ft 440 kts 169°
2026-05-03 21:47 29.74072 -82.78171 37095 ft 440 kts 169°
2026-05-03 21:47 29.68511 -82.75236 37094 ft 440 kts 169°
2026-05-03 21:48 29.62949 -82.72304 37094 ft 440 kts 169°
2026-05-03 21:48 29.57410 -82.69389 37094 ft 440 kts 169°
2026-05-03 21:49 29.51838 -82.66460 37094 ft 440 kts 169°
2026-05-03 21:49 29.46273 -82.63537 37091 ft 440 kts 169°
2026-05-03 21:50 29.40703 -82.60616 37087 ft 440 kts 169°
2026-05-03 21:50 29.35134 -82.57698 37088 ft 440 kts 169°
2026-05-03 21:51 29.29547 -82.54845 37081 ft 433 kts 174°
2026-05-03 21:51 29.26722 -82.53800 37078 ft 422 kts 179°
2026-05-03 21:51 29.23895 -82.53111 37078 ft 411 kts 185°
2026-05-03 21:52 29.18313 -82.52694 37077 ft 395 kts 193°
2026-05-03 21:52 29.12799 -82.52724 37074 ft 396 kts 193°
2026-05-03 21:53 29.07317 -82.52721 37063 ft 397 kts 193°
2026-05-03 21:53 29.01754 -82.52716 37072 ft 397 kts 193°
2026-05-03 21:54 28.96270 -82.52713 37069 ft 397 kts 193°
2026-05-03 21:54 28.90733 -82.52710 37069 ft 398 kts 193°
2026-05-03 21:55 28.85194 -82.52707 37074 ft 398 kts 193°
2026-05-03 21:55 28.79646 -82.52704 37076 ft 399 kts 193°
2026-05-03 21:56 28.74094 -82.52701 37080 ft 399 kts 193°
2026-05-03 21:56 28.68538 -82.52698 37079 ft 399 kts 193°
2026-05-03 21:57 28.62968 -82.52695 37078 ft 399 kts 193°
2026-05-03 21:57 28.57410 -82.52691 37076 ft 399 kts 193°
2026-05-03 21:58 28.51852 -82.52688 37074 ft 399 kts 193°
2026-05-03 21:58 28.46292 -82.52686 37071 ft 399 kts 193°
2026-05-03 21:59 28.40769 -82.52683 37066 ft 399 kts 193°
2026-05-03 21:59 28.35208 -82.52680 37064 ft 399 kts 192°
2026-05-03 22:00 28.29644 -82.52678 37053 ft 400 kts 192°
2026-05-03 22:00 28.24079 -82.52675 37066 ft 400 kts 192°
2026-05-03 22:01 28.18513 -82.52672 37053 ft 400 kts 192°
2026-05-03 22:01 28.12932 -82.52669 37046 ft 401 kts 192°
2026-05-03 22:02 28.07353 -82.52667 37038 ft 401 kts 192°
2026-05-03 22:02 28.01721 -82.52470 37041 ft 411 kts 187°
2026-05-03 22:03 27.95988 -82.51276 37038 ft 428 kts 178°
2026-05-03 22:03 27.90286 -82.49254 37034 ft 433 kts 175°
2026-05-03 22:04 27.84532 -82.47198 37038 ft 434 kts 175°
2026-05-03 22:04 27.78755 -82.45151 37043 ft 435 kts 175°
2026-05-03 22:05 27.72973 -82.43105 37048 ft 436 kts 175°
2026-05-03 22:05 27.67171 -82.41053 37055 ft 437 kts 175°
2026-05-03 22:06 27.61358 -82.38999 37057 ft 438 kts 175°
2026-05-03 22:06 27.55542 -82.36947 37060 ft 439 kts 175°
2026-05-03 22:07 27.49748 -82.34904 37054 ft 438 kts 175°
2026-05-03 22:07 27.43942 -82.32859 37049 ft 438 kts 175°
2026-05-03 22:08 27.38129 -82.30649 37048 ft 447 kts 169°
2026-05-03 22:08 27.32495 -82.27376 37050 ft 461 kts 162°
2026-05-03 22:09 27.26918 -82.23802 37037 ft 460 kts 162°
2026-05-03 22:09 27.24124 -82.22026 36866 ft 461 kts 162°
2026-05-03 22:10 27.18524 -82.18478 35822 ft 463 kts 162°
2026-05-03 22:10 27.15718 -82.16701 35226 ft 463 kts 162°
2026-05-03 22:10 27.12946 -82.14944 34669 ft 462 kts 162°
2026-05-03 22:10 27.10343 -82.13297 34150 ft 463 kts 162°
2026-05-03 22:11 27.09545 -82.12792 33978 ft 463 kts 162°
2026-05-03 22:11 27.09275 -82.12621 33911 ft 463 kts 162°